C/2020 R7 ( ATLAS )

Japanese version
Home page
Updated on August 10, 2024

---------------------------------------------------------------------

* Profile

Discovery Date September 15, 2020
Magnitude 19.0 mag
Discoverer Asteroid Terrestrial-Impact Last Alert System (ATLAS) search program

* Pictures

* Orbital Elements

Epoch 2024 Mar. 31.0 TT = JDT 2460400.5
T 2022 Sept. 16.21167 TT                                Rudenko
q   2.9552278            (2000.0)            P               Q
z  -0.0000558      Peri.  347.82757     +0.05970464     -0.41768815
 +/-0.0000005      Node   268.29755     -0.82280379     -0.53483346
e   1.0001650      Incl.  114.90231     -0.56518075     +0.73449968
>From 1817 observations 2019 Dec. 3-2024 Feb. 17, mean residual 0".7.

* Finding Charts

* Magnitudes Graph

        m1 = 8.0 + 5 log d +  8.0 log r(t + 80)  [ ,0]  (             - 2022 Sept.16)
        m1 = 7.2 + 5 log d + 10.0 log r          [0, ]  (2022 Sept.16 -             )

---------------------------------------------------------------------

The orbital elements are published on M.P.E.C. 2024-D126.
The charts are made with StellaNavigator Ver.10 (AstroArts).
The magnitudes graphs are made with Comet for Windows.

---------------------------------------------------------------------

Copyright(C) Seiichi Yoshida (comet@aerith.net). All rights reserved.